Buckhannon, WV

1:08 PM EST on January 19, 2018 (GMT -0500)
Buckhannon

Weather History for KW22 - February, 2013

Change the Weather History Date:

Sunday, February 3, 2013

  Actual Average (KCKB) Record (KCKB)
Temperature  
Mean Temperature 24 °F -  
Max Temperature 28 °F 41 °F 66 °F (1989)
Min Temperature 21 °F 21 °F -4 °F (1980)
Degree Days  
Heating Degree Days 40    
Moisture  
Dew Point 23 °F    
Average Humidity 90    
Maximum Humidity 100    
Minimum Humidity 74    
Precipitation  
Precipitation 1.98 in - - ()
Sea Level Pressure  
Sea Level Pressure 29.90 in    
Wind  
Wind Speed 9 mph (WSW)    
Max Wind Speed 21 mph    
Max Gust Speed 29 mph    
Visibility 4 miles    
Events Rain , Snow    
Averages and records for this station are not official NWS values.
T = Trace of Precipitation, MM = Missing Value Source: NWS Daily Summary

Daily Weather History Graph

Daily Weather History Graph

Search for Another Location

Airport or City:

Trip Planner

Search our weather history database for the weather conditions in past years. The results will help you decide how hot, cold, wet, or windy it might be!

Date:

Astronomy

Feb. 03, 2013 Rise Set
Actual Time 7:25 AM EST 5:44 PM EST
Civil Twilight 6:57 AM EST 6:12 PM EST
Nautical Twilight 6:25 AM EST 6:44 PM EST
Astronomical Twilight 5:54 AM EST 7:16 PM EST
Moon 12:51 AM EST (2/3) 11:21 AM EST (2/3)
Length of Visible Light 11h 15m
Length of Day
10h 19m
Waning Gibbous, 49% of the Moon is Illuminated
Feb 3
Waning Gibbous
Feb 10
New
Feb 17
First Quarter
Feb 25
Full
Mar 4
Last Quarter

Hourly Weather History & Observations

Time (EST) Temp. Windchill Dew Point Humidity Pressure Visibility Wind Dir Wind Speed Gust Speed Precip Events Conditions
12:15 AM 28.4 °F 19.1 °F 28.4 °F 100% 29.95 in 4.0 mi West 10.4 mph 16.1 mph N/A Rain Light Freezing Rain
12:35 AM 28.4 °F 18.0 °F 28.4 °F 100% 29.95 in 3.0 mi West 12.7 mph - N/A   Overcast
12:55 AM 28.4 °F 20.4 °F 26.6 °F 93% 29.94 in 3.0 mi West 8.1 mph - 0.03 in Snow Light Snow
1:15 AM 26.6 °F 18.2 °F 26.6 °F 100% 29.93 in 5.0 mi West 8.1 mph - 0.01 in Snow Light Snow
1:35 AM 26.6 °F 18.2 °F 26.6 °F 100% 29.92 in 9.0 mi WSW 8.1 mph - 0.02 in   Overcast
1:55 AM 26.6 °F 16.8 °F 26.6 °F 100% 29.92 in 9.0 mi West 10.4 mph - 0.02 in   Overcast
2:15 AM 26.6 °F 20.0 °F 26.6 °F 100% 29.91 in 7.0 mi West 5.8 mph - N/A Snow Light Snow
2:35 AM 26.6 °F 18.2 °F 26.6 °F 100% 29.91 in 5.0 mi WSW 8.1 mph - N/A   Overcast
2:55 AM 26.6 °F 16.8 °F 26.6 °F 100% 29.90 in 5.0 mi West 10.4 mph - N/A   Overcast
3:15 AM 26.6 °F 17.5 °F 26.6 °F 100% 29.90 in 4.0 mi West 9.2 mph - N/A Snow Light Snow
3:35 AM 26.6 °F 20.0 °F 26.6 °F 100% 29.89 in 4.0 mi West 5.8 mph - N/A   Overcast
3:55 AM 26.6 °F 17.5 °F 26.6 °F 100% 29.88 in 5.0 mi WSW 9.2 mph - N/A Snow Light Snow
4:15 AM 26.6 °F 18.2 °F 26.6 °F 100% 29.88 in 4.0 mi West 8.1 mph - N/A Rain Light Freezing Rain
4:35 AM 26.6 °F 17.5 °F 26.6 °F 100% 29.87 in 5.0 mi West 9.2 mph - N/A Rain Light Freezing Rain
4:55 AM 26.6 °F 20.0 °F 26.6 °F 100% 29.87 in 5.0 mi WNW 5.8 mph - 0.01 in Snow Light Snow
5:15 AM 26.6 °F 19.1 °F 24.8 °F 93% 29.87 in 7.0 mi West 6.9 mph 16.1 mph N/A   Overcast
5:35 AM 26.6 °F 19.1 °F 23.0 °F 86% 29.87 in 5.0 mi West 6.9 mph - N/A   Overcast
5:55 AM 26.6 °F 20.0 °F 23.0 °F 86% 29.87 in 5.0 mi West 5.8 mph - N/A   Overcast
6:15 AM 26.6 °F 19.1 °F 24.8 °F 93% 29.87 in 3.0 mi West 6.9 mph - N/A Snow Light Snow
6:35 AM 26.6 °F 18.2 °F 24.8 °F 93% 29.87 in 5.0 mi WSW 8.1 mph - N/A Snow Light Snow
6:55 AM 26.6 °F 19.1 °F 23.0 °F 86% 29.87 in 8.0 mi WSW 6.9 mph - 0.01 in   Mostly Cloudy
7:15 AM 24.8 °F 16.9 °F 23.0 °F 93% 29.87 in 7.0 mi SW 6.9 mph - N/A   Mostly Cloudy
7:35 AM 24.8 °F 17.9 °F 23.0 °F 93% 29.87 in 10.0 mi SW 5.8 mph - N/A   Mostly Cloudy
7:55 AM 24.8 °F - 23.0 °F 93% 29.87 in 9.0 mi Calm Calm - N/A   Mostly Cloudy
8:15 AM 24.8 °F 17.9 °F 23.0 °F 93% 29.87 in 3.0 mi SSW 5.8 mph - N/A Snow Light Snow
8:55 AM 24.8 °F - 23.0 °F 93% 29.87 in 3.0 mi Calm Calm - 0.02 in Snow Light Snow
9:15 AM 24.8 °F - 23.0 °F 93% 29.87 in 4.0 mi Calm Calm - N/A Snow Light Snow
9:35 AM 24.8 °F - 23.0 °F 93% 29.86 in 3.0 mi Calm Calm - 0.01 in Snow Light Snow
9:55 AM 26.6 °F - 24.8 °F 93% 29.85 in 2.0 mi Calm Calm - 0.04 in Snow Light Snow
10:15 AM 26.6 °F 22.6 °F 24.8 °F 93% 29.85 in 4.0 mi SSW 3.5 mph - N/A Snow Light Snow
10:35 AM 26.6 °F 20.0 °F 24.8 °F 93% 29.84 in 1.2 mi SW 5.8 mph - 0.01 in Snow Light Snow
10:55 AM 26.6 °F 21.2 °F 26.6 °F 100% 29.84 in 1.0 mi SSW 4.6 mph - 0.07 in Snow Light Snow
11:15 AM 26.6 °F 21.2 °F 26.6 °F 100% 29.84 in 1.0 mi SSW 4.6 mph - 0.03 in Snow Light Snow
11:35 AM 26.6 °F 16.8 °F 24.8 °F 93% 29.83 in 0.8 mi SW 10.4 mph - 0.07 in Snow Light Snow
11:55 AM 28.4 °F 19.7 °F 26.6 °F 93% 29.82 in 1.2 mi SW 9.2 mph - 0.14 in Snow Light Snow
12:15 PM 28.4 °F 18.5 °F 26.6 °F 93% 29.82 in 0.8 mi WSW 11.5 mph - 0.08 in Snow Light Snow
12:35 PM 28.4 °F 18.0 °F 26.6 °F 93% 29.81 in 1.2 mi WSW 12.7 mph 20.7 mph 0.15 in Snow Light Snow
12:55 PM 28.4 °F 19.1 °F 26.6 °F 93% 29.81 in 1.0 mi WSW 10.4 mph 18.4 mph 0.41 in Snow Light Snow
1:15 PM 26.6 °F 13.8 °F 24.8 °F 93% 29.81 in 0.8 mi WSW 17.3 mph 20.7 mph 0.13 in Snow Light Snow
1:35 PM 26.6 °F 15.7 °F 23.0 °F 86% 29.81 in 1.0 mi WSW 12.7 mph 18.4 mph 0.31 in Snow Light Snow
1:55 PM 26.6 °F 16.8 °F 23.0 °F 86% 29.81 in 1.8 mi West 10.4 mph 21.9 mph 0.41 in Snow Light Snow
2:15 PM 26.6 °F 16.8 °F 23.0 °F 86% 29.81 in 1.8 mi West 10.4 mph 21.9 mph 0.10 in Snow Light Snow
2:35 PM 26.6 °F 15.2 °F 24.8 °F 93% 29.82 in 0.8 mi SW 13.8 mph - 0.19 in Snow Light Snow
2:55 PM 26.6 °F 14.3 °F 23.0 °F 86% 29.82 in 1.2 mi WSW 16.1 mph 24.2 mph 0.29 in Snow Light Snow
3:15 PM 26.6 °F 16.8 °F 21.2 °F 80% 29.83 in 4.0 mi WSW 10.4 mph 21.9 mph 0.01 in Snow Light Snow
3:35 PM 26.6 °F 13.1 °F 21.2 °F 80% 29.84 in 7.0 mi WSW 19.6 mph 23.0 mph 0.02 in   Overcast
3:55 PM 26.6 °F 15.2 °F 21.2 °F 80% 29.85 in 8.0 mi West 13.8 mph - 0.02 in Snow Light Snow
4:15 PM 26.6 °F 15.2 °F 21.2 °F 80% 29.86 in 4.0 mi West 13.8 mph 20.7 mph 0.01 in Snow Light Snow
4:35 PM 26.6 °F 14.7 °F 21.2 °F 80% 29.87 in 3.0 mi West 15.0 mph 20.7 mph 0.04 in Snow Light Snow
4:55 PM 26.6 °F 16.2 °F 21.2 °F 80% 29.88 in 2.5 mi West 11.5 mph - 0.08 in Snow Light Snow
5:15 PM 24.8 °F 11.1 °F 21.2 °F 86% 29.89 in 1.5 mi WSW 18.4 mph 28.8 mph 0.05 in Snow Light Snow
5:35 PM 24.8 °F 13.4 °F 21.2 °F 86% 29.90 in 1.5 mi WSW 12.7 mph 19.6 mph 0.17 in Snow Light Snow
5:55 PM 23.0 °F 9.6 °F 21.2 °F 93% 29.91 in 3.0 mi WSW 16.1 mph 27.6 mph 0.20 in Snow Light Snow
6:15 PM 23.0 °F 11.1 °F 19.4 °F 86% 29.93 in 5.0 mi WSW 12.7 mph 23.0 mph 0.01 in Snow Light Snow
6:35 PM 23.0 °F 8.0 °F 17.6 °F 80% 29.94 in 6.0 mi WSW 20.7 mph 27.6 mph 0.03 in Snow Light Snow
6:55 PM 23.0 °F 12.4 °F 19.4 °F 86% 29.95 in 3.0 mi WSW 10.4 mph - 0.05 in Snow Light Snow
7:15 PM 23.0 °F 10.6 °F 19.4 °F 86% 29.97 in 4.0 mi WSW 13.8 mph 23.0 mph 0.04 in Snow Light Snow
7:35 PM 23.0 °F 9.6 °F 17.6 °F 80% 29.98 in 5.0 mi WSW 16.1 mph 21.9 mph 0.07 in Snow Light Snow
7:55 PM 23.0 °F 10.1 °F 17.6 °F 80% 29.98 in 7.0 mi WSW 15.0 mph 23.0 mph 0.08 in Snow Light Snow
8:15 PM 23.0 °F 12.4 °F 17.6 °F 80% 29.99 in 9.0 mi West 10.4 mph 19.6 mph N/A Snow Light Snow
8:35 PM 23.0 °F 10.1 °F 17.6 °F 80% 30.00 in 8.0 mi West 15.0 mph 20.7 mph N/A Snow Light Snow
8:55 PM 21.2 °F 7.3 °F 17.6 °F 86% 30.01 in 7.0 mi West 16.1 mph 21.9 mph 0.01 in Snow Light Snow
9:15 PM 21.2 °F 9.5 °F 15.8 °F 80% 30.02 in 8.0 mi West 11.5 mph 19.6 mph N/A Snow Light Snow
9:35 PM 21.2 °F 9.5 °F 15.8 °F 80% 30.02 in 6.0 mi West 11.5 mph 18.4 mph 0.01 in Snow Light Snow
9:55 PM 21.2 °F 11.7 °F 17.6 °F 86% 30.03 in 5.0 mi West 8.1 mph - 0.03 in Snow Light Snow
10:15 PM 21.2 °F 12.6 °F 17.6 °F 86% 30.03 in 5.0 mi West 6.9 mph - 0.01 in Snow Light Snow
10:55 PM 21.2 °F 12.6 °F 17.6 °F 86% 30.04 in 5.0 mi West 6.9 mph - 0.06 in Snow Light Snow
11:15 PM 21.2 °F 8.9 °F 15.8 °F 80% 30.04 in 10.0 mi West 12.7 mph 20.7 mph N/A Snow Light Snow
11:35 PM 21.2 °F 8.9 °F 14.0 °F 74% 30.05 in 10.0 mi West 12.7 mph 19.6 mph N/A Snow Light Snow
11:55 PM 21.2 °F 8.9 °F 14.0 °F 74% 30.04 in 8.0 mi West 12.7 mph 18.4 mph N/A Snow Light Snow